GW5633 Weather Reports


Display with metric or nautical units.
time (UTC)temp
F
wind
direction
speed
MPH
gust
MPH
rain 1hr
in
rain 24hr
in
rain mn
in
humidity
%
barometer
mb
20260505210539 78 261 7.0 9.0 0.00 0.00 0.00 33 1007.8
20260505210037 78 186 7.0 9.0 0.00 0.00 0.00 34 1007.6
20260505205535 78 190 7.0 11.0 0.00 0.00 0.00 32 1007.7
20260505205031 78 203 11.0 17.0 0.00 0.00 0.00 32 1007.7
20260505204529 79 184 12.0 16.0 0.00 0.00 0.00 32 1007.7
20260505204026 79 213 5.0 8.0 0.00 0.00 0.00 31 1007.9
20260505203523 79 199 4.0 8.0 0.00 0.00 0.00 31 1007.7
20260505203020 80 286 6.0 13.0 0.00 0.00 0.00 31 1007.8
20260505202516 80 225 9.0 11.0 0.00 0.00 0.00 30 1007.7
20260505202012 79 179 13.0 18.0 0.00 0.00 0.00 30 1007.5
20260505201510 79 183 6.0 13.0 0.00 0.00 0.00 30 1007.9
20260505201006 80 196 10.0 14.0 0.00 0.00 0.00 29 1007.9
20260505200504 80 198 8.0 20.0 0.00 0.00 0.00 29 1008.1
20260505200000 80 225 7.0 11.0 0.00 0.00 0.00 29 1007.9
20260505195457 80 218 9.0 13.0 0.00 0.00 0.00 30 1007.7
20260505194954 80 191 11.0 15.0 0.00 0.00 0.00 31 1007.8
20260505194452 80 207 5.0 11.0 0.00 0.00 0.00 29 1008.0
20260505193952 80 214 4.0 8.0 0.00 0.00 0.00 29 1007.8
20260505193450 80 262 1.0 3.0 0.00 0.00 0.00 31 1008.1
20260505192947 80 204 3.0 7.0 0.00 0.00 0.00 31 1007.9
20260505192445 80 201 4.0 6.0 0.00 0.00 0.00 30 1007.8
20260505191942 80 270 7.0 21.0 0.00 0.00 0.00 29 1007.8
20260505191441 80 205 12.0 15.0 0.00 0.00 0.00 29 1008.0
20260505190937 81 189 7.0 11.0 0.00 0.00 0.00 32 1008.2
20260505190432 80 215 14.0 18.0 0.00 0.00 0.00 31 1008.1
20260505185928 80 153 5.0 8.0 0.00 0.00 0.00 34 1008.1
20260505185426 81 167 6.0 9.0 0.00 0.00 0.00 32 1008.2
20260505184922 81 213 7.0 9.0 0.00 0.00 0.00 31 1008.7
20260505184419 80 227 16.0 22.0 0.00 0.00 0.00 32 1008.6
20260505183916 80 204 14.0 20.0 0.00 0.00 0.00 29 1008.7
20260505183413 80 233 12.0 16.0 0.00 0.00 0.00 32 1008.4
20260505182909 81 201 13.0 20.0 0.00 0.00 0.00 32 1008.9
20260505182406 80 217 10.0 17.0 0.00 0.00 0.00 34 1008.8
20260505181902 80 208 8.0 10.0 0.00 0.00 0.00 34 1008.9
20260505181400 80 273 6.0 10.0 0.00 0.00 0.00 35 1008.6
20260505180856 80 196 6.0 9.0 0.00 0.00 0.00 35 1008.9
20260505180353 80 248 6.0 8.0 0.00 0.00 0.00 35 1008.7
20260505175850 80 188 7.0 10.0 0.00 0.00 0.00 37 1008.9
20260505175346 80 185 5.0 9.0 0.00 0.00 0.00 38 1008.9
20260505174843 81 166 5.0 7.0 0.00 0.00 0.00 37 1009.0
20260505174340 80 309 1.0 3.0 0.00 0.00 0.00 40 1009.0
20260505173836 80 215 5.0 6.0 0.00 0.00 0.00 40 1009.0
20260505173333 80 229 5.0 8.0 0.00 0.00 0.00 37 1009.2
20260505172830 79 212 7.0 8.0 0.00 0.00 0.00 38 1009.2
20260505172327 79 232 4.0 8.0 0.00 0.00 0.00 39 1009.3
20260505171821 79 222 7.0 14.0 0.00 0.00 0.00 38 1009.5
20260505171318 78 229 2.0 8.0 0.00 0.00 0.00 40 1009.4
20260505170814 78 256 5.0 8.0 0.00 0.00 0.00 40 1009.7
20260505170312 78 210 8.0 10.0 0.00 0.00 0.00 39 1009.4
20260505165807 78 267 5.0 9.0 0.00 0.00 0.00 40 1009.6
20260505165305 78 283 5.0 8.0 0.00 0.00 0.00 42 1009.7
20260505164758 78 156 3.0 5.0 0.00 0.00 0.00 40 1009.7
20260505164256 77 243 4.0 6.0 0.00 0.00 0.00 41 1009.8
20260505163754 77 193 7.0 8.0 0.00 0.00 0.00 44 1009.9
20260505163252 77 198 3.0 6.0 0.00 0.00 0.00 43 1010.0
20260505162749 77 213 4.0 7.0 0.00 0.00 0.00 43 1010.0
20260505162246 77 180 0.0 2.0 0.00 0.00 0.00 42 1010.1
20260505161743 77 203 3.0 5.0 0.00 0.00 0.00 45 1010.2
20260505161241 76 208 1.0 2.0 0.00 0.00 0.00 43 1010.1
20260505160738 77 210 5.0 8.0 0.00 0.00 0.00 43 1010.1
20260505160236 75 211 3.0 5.0 0.00 0.00 0.00 47 1010.2
20260505153215 74 239 2.0 6.0 0.00 0.00 0.00 47 1010.8
20260505152711 74 221 3.0 7.0 0.00 0.00 0.00 45 1010.8
20260505152208 73 195 0.0 0.0 0.00 0.00 0.00 49 1010.7
20260505151703 73 213 3.0 5.0 0.00 0.00 0.00 48 1010.7
20260505151200 73 225 1.0 2.0 0.00 0.00 0.00 48 1010.9
20260505150656 71 185 2.0 2.0 0.00 0.00 0.00 51 1010.6
20260505150154 71 202 2.0 3.0 0.00 0.00 0.00 51 1010.9
20260505140622 68 195 3.0 3.0 0.00 0.00 0.00 57 1011.5
20260505140119 68 203 0.0 0.0 0.00 0.00 0.00 57 1011.4
20260505125036 64 210 0.0 0.0 0.00 0.00 0.00 63 1010.9
20260505124532 64 226 1.0 5.0 0.00 0.00 0.00 65 1011.2
20260505124028 63 8 0.0 1.0 0.00 0.00 0.00 66 1011.1
20260505123525 63 252 2.0 3.0 0.00 0.00 0.00 66 1011.3
20260505123021 63 160 0.0 0.0 0.00 0.00 0.00 66 1011.3
20260505122518 63 285 0.0 1.0 0.00 0.00 0.00 67 1011.1
20260505122015 62 243 0.0 1.0 0.00 0.00 0.00 68 1011.1
20260505121512 62 266 1.0 3.0 0.00 0.00 0.00 68 1010.8
20260505121009 61 296 0.0 0.0 0.00 0.00 0.00 69 1010.8
20260505120505 61 221 0.0 0.0 0.00 0.00 0.00 71 1010.8
20260505120005 60 306 0.0 0.0 0.00 0.00 0.00 71 1011.0
20260505115500 60 256 0.0 0.0 0.00 0.00 0.00 73 1010.9
20260505114958 59 218 0.0 0.0 0.00 0.00 0.00 72 1011.0
20260505114454 59 281 0.0 0.0 0.00 0.00 0.00 73 1011.2
20260505113951 59 252 0.0 0.0 0.00 0.00 0.00 74 1011.1
20260505113447 59 186 0.0 0.0 0.00 0.00 0.00 74 1011.0
20260505112943 58 256 0.0 1.0 0.00 0.00 0.00 76 1011.1
20260505112441 57 283 0.0 0.0 0.00 0.00 0.00 77 1011.2
20260505111937 57 186 0.0 0.0 0.00 0.00 0.00 79 1011.3
20260505111432 56 289 0.0 0.0 0.00 0.00 0.00 79 1011.0
20260505110928 56 317 0.0 0.0 0.00 0.00 0.00 81 1011.0
20260505110425 55 354 0.0 0.0 0.00 0.00 0.00 83 1010.9
20260505101856 55 141 0.0 0.0 0.00 0.00 0.00 75 1010.3
20260505101351 55 120 0.0 0.0 0.00 0.00 0.00 73 1010.4
20260505100847 56 143 0.0 0.0 0.00 0.00 0.00 70 1010.8
20260505100344 56 151 0.0 0.0 0.00 0.00 0.00 70 1010.7
20260505095839 57 159 0.0 0.0 0.00 0.00 0.00 69 1010.6
20260505095337 57 200 0.0 0.0 0.00 0.00 0.00 69 1010.9
20260505094833 57 169 0.0 0.0 0.00 0.00 0.00 68 1011.0
20260505094330 57 271 1.0 2.0 0.00 0.00 0.00 68 1010.9
20260505093825 57 272 0.0 0.0 0.00 0.00 0.00 66 1010.9
20260505093324 58 281 0.0 0.0 0.00 0.00 0.00 65 1010.8
20260505092820 57 197 0.0 0.0 0.00 0.00 0.00 65 1010.6
20260505092319 57 210 0.0 0.0 0.00 0.00 0.00 65 1010.7
20260505091815 57 240 1.0 2.0 0.00 0.00 0.00 66 1010.6
20260505091314 57 257 0.0 0.0 0.00 0.00 0.00 66 1010.3
20260505090811 56 317 0.0 0.0 0.00 0.00 0.00 66 1010.6
20260505090309 56 298 0.0 0.0 0.00 0.00 0.00 65 1010.4
20260505085806 57 283 0.0 0.0 0.00 0.00 0.00 65 1010.3
20260505085305 57 294 0.0 0.0 0.00 0.00 0.00 64 1010.3
20260505084801 57 286 0.0 0.0 0.00 0.00 0.00 64 1010.3
20260505084300 57 269 0.0 0.0 0.00 0.00 0.00 63 1010.3
20260505083756 57 279 0.0 0.0 0.00 0.00 0.00 63 1010.1
20260505083253 57 248 0.0 0.0 0.00 0.00 0.00 63 1010.0
20260505082749 57 298 0.0 0.0 0.00 0.00 0.00 62 1010.2
20260505082247 57 249 0.0 0.0 0.00 0.00 0.00 62 1010.1
20260505081743 57 285 0.0 0.0 0.00 0.00 0.00 62 1010.3
20260505081240 57 287 0.0 0.0 0.00 0.00 0.00 62 1010.2
20260505080737 57 261 0.0 0.0 0.00 0.00 0.00 62 1010.1
20260505080232 57 274 0.0 0.0 0.00 0.00 0.00 61 1010.0
20260505075728 57 288 0.0 0.0 0.00 0.00 0.00 62 1010.2
20260505075226 57 281 0.0 0.0 0.00 0.00 0.00 62 1010.2
20260505074723 57 267 0.0 0.0 0.00 0.00 0.00 62 1010.2
20260505074220 57 299 0.0 0.0 0.00 0.00 0.00 62 1010.3
20260505073718 57 296 0.0 0.0 0.00 0.00 0.00 62 1010.2
20260505073215 57 304 0.0 0.0 0.00 0.00 0.00 62 1010.2
20260505072711 57 301 0.0 0.0 0.00 0.00 0.00 62 1010.2
20260505072208 57 298 0.0 0.0 0.00 0.00 0.00 62 1010.1
20260505071703 57 322 0.0 0.0 0.00 0.00 0.00 61 1010.0
20260505071201 57 271 0.0 0.0 0.00 0.00 0.00 61 1010.1
20260505070658 57 251 0.0 0.0 0.00 0.00 0.00 60 1010.1
20260505070154 57 224 0.0 0.0 0.00 0.00 0.00 60 1010.0
20260505065650 57 205 0.0 0.0 0.00 0.00 0.00 60 1010.2
20260505065147 57 238 0.0 0.0 0.00 0.00 0.00 60 1010.1
20260505064644 57 244 0.0 0.0 0.00 0.00 0.00 60 1010.0
20260505064142 57 231 0.0 0.0 0.00 0.00 0.00 61 1010.4
20260505063639 57 259 0.0 0.0 0.00 0.00 0.00 61 1010.2
20260505063135 57 278 0.0 0.0 0.00 0.00 0.00 60 1010.3
20260505062632 57 304 0.0 0.0 0.00 0.00 0.00 60 1010.1
20260505062129 57 248 0.0 0.0 0.00 0.00 0.00 59 1010.3
20260505061626 58 303 0.0 0.0 0.00 0.00 0.00 59 1010.2
20260505061124 58 218 0.0 0.0 0.00 0.00 0.00 59 1010.3
20260505060622 58 297 0.0 0.0 0.00 0.00 0.00 58 1010.4
20260505060118 58 207 0.0 0.0 0.00 0.00 0.00 58 1010.4
20260505055613 58 272 0.0 0.0 0.00 0.00 0.00 57 1010.3
20260505055110 59 180 0.0 0.0 0.00 0.00 0.00 57 1010.2
20260505054608 59 182 0.0 0.0 0.00 0.00 0.00 56 1010.4
20260505054106 59 202 2.0 2.0 0.00 0.00 0.00 55 1010.2
20260505053602 59 266 0.0 0.0 0.00 0.00 0.00 55 1010.3
20260505053059 59 262 0.0 0.0 0.00 0.00 0.00 54 1010.4
20260505052556 59 203 0.0 0.0 0.00 0.00 0.00 54 1010.4
20260505052054 59 194 0.0 0.0 0.00 0.00 0.00 53 1010.3
20260505051550 59 183 0.0 0.0 0.00 0.00 0.00 53 1010.3
20260505051048 59 211 0.0 0.0 0.00 0.00 0.00 53 1010.2
20260505050546 60 250 0.0 0.0 0.00 0.00 0.00 52 1010.5
20260505041514 61 236 0.0 0.0 0.00 0.00 0.00 50 1010.4
20260505041011 61 212 0.0 0.0 0.00 0.00 0.00 49 1010.4
20260505040509 61 206 0.0 0.0 0.00 0.00 0.00 49 1010.5
20260505040006 61 240 0.0 0.0 0.00 0.00 0.00 48 1010.4
20260505035501 61 215 1.0 2.0 0.00 0.00 0.00 49 1010.2
20260505034959 61 276 0.0 0.0 0.00 0.00 0.00 49 1010.1
20260505034455 61 202 0.0 1.0 0.00 0.00 0.00 48 1010.3
20260505033952 61 248 0.0 0.0 0.00 0.00 0.00 48 1010.4
20260505033449 61 218 0.0 0.0 0.00 0.00 0.00 48 1010.3
20260505032947 61 185 0.0 0.0 0.00 0.00 0.00 48 1010.3
20260505032444 61 212 0.0 0.0 0.00 0.00 0.00 48 1010.6
20260505031940 61 157 0.0 0.0 0.00 0.00 0.00 48 1010.5
20260505031437 61 238 0.0 0.0 0.00 0.00 0.00 48 1010.6
20260505030934 61 169 0.0 0.0 0.00 0.00 0.00 48 1010.4
20260505030430 61 172 0.0 0.0 0.00 0.00 0.00 48 1010.6
20260505025926 61 307 0.0 0.0 0.00 0.00 0.00 48 1010.4
20260505025423 61 279 0.0 0.0 0.00 0.00 0.00 47 1010.6
20260505024922 62 277 0.0 0.0 0.00 0.00 0.00 47 1010.7
20260505024419 62 187 0.0 0.0 0.00 0.00 0.00 47 1010.8
20260505023916 62 261 0.0 0.0 0.00 0.00 0.00 47 1010.4
20260505023413 62 258 0.0 0.0 0.00 0.00 0.00 46 1010.5
20260505022910 62 152 0.0 0.0 0.00 0.00 0.00 45 1010.3
20260505022408 62 173 0.0 0.0 0.00 0.00 0.00 46 1010.5
20260505021905 62 197 0.0 0.0 0.00 0.00 0.00 46 1010.6
20260505021401 62 186 0.0 0.0 0.00 0.00 0.00 45 1010.8
20260505020857 62 192 1.0 3.0 0.00 0.00 0.00 46 1010.5
20260505020353 62 185 0.0 0.0 0.00 0.00 0.00 46 1010.6
20260505015850 62 199 0.0 0.0 0.00 0.00 0.00 45 1010.6
20260505015347 62 301 0.0 0.0 0.00 0.00 0.00 45 1010.5
20260505014844 63 269 0.0 0.0 0.00 0.00 0.00 45 1010.5
20260505014341 63 246 0.0 0.0 0.00 0.00 0.00 45 1010.5
20260505013837 63 274 0.0 0.0 0.00 0.00 0.00 44 1010.5
20260505013334 63 199 0.0 0.0 0.00 0.00 0.00 44 1010.5
20260505012833 63 249 0.0 0.0 0.00 0.00 0.00 44 1010.5
20260505012331 63 276 0.0 0.0 0.00 0.00 0.00 44 1010.4
20260505011826 63 200 0.0 0.0 0.00 0.00 0.00 44 1010.1
20260505011323 63 230 0.0 0.0 0.00 0.00 0.00 45 1010.3
20260505010819 63 162 0.0 0.0 0.00 0.00 0.00 45 1010.3
20260505010315 63 217 0.0 0.0 0.00 0.00 0.00 44 1010.1
20260505005812 63 232 0.0 0.0 0.00 0.00 0.00 44 1010.0
20260505005309 64 273 0.0 0.0 0.00 0.00 0.00 44 1010.0
20260505004806 64 245 0.0 0.0 0.00 0.00 0.00 43 1010.2
20260505004302 64 277 0.0 0.0 0.00 0.00 0.00 43 1009.9
20260505003800 65 188 0.0 0.0 0.00 0.00 0.00 43 1009.9
20260505003257 65 214 0.0 0.0 0.00 0.00 0.00 42 1010.0
20260505002753 65 201 0.0 0.0 0.00 0.00 0.00 42 1009.9
20260505002250 65 230 0.0 1.0 0.00 0.00 0.00 42 1009.8
20260505001748 66 191 1.0 2.0 0.00 0.00 0.00 41 1009.7
20260505001245 66 227 1.0 3.0 0.00 0.00 0.00 41 1009.7
20260505000742 66 193 1.0 2.0 0.00 0.00 0.00 41 1009.6
20260505000240 66 211 1.0 2.0 0.00 0.00 0.00 41 1009.5
20260504235736 66 199 0.0 1.0 0.00 0.00 0.00 42 1009.8
20260504235233 66 202 0.0 0.0 0.00 0.00 0.00 41 1009.5
20260504234730 67 191 0.0 0.0 0.00 0.00 0.00 41 1009.4
20260504234227 67 211 0.0 0.0 0.00 0.00 0.00 40 1009.4
20260504233724 67 246 3.0 7.0 0.00 0.00 0.00 39 1009.4
20260504233219 67 203 2.0 5.0 0.00 0.00 0.00 40 1009.4
20260504232717 68 202 0.0 2.0 0.00 0.00 0.00 40 1009.1
20260504232214 68 206 2.0 5.0 0.00 0.00 0.00 39 1009.2
20260504231710 68 231 6.0 9.0 0.00 0.00 0.00 38 1009.0
20260504231207 68 202 1.0 2.0 0.00 0.00 0.00 38 1008.9
20260504230703 68 207 8.0 9.0 0.00 0.00 0.00 38 1009.0
20260504230202 68 204 5.0 7.0 0.00 0.00 0.00 38 1008.9
20260504225700 69 226 1.0 5.0 0.00 0.00 0.00 38 1008.9
20260504225155 69 193 6.0 7.0 0.00 0.00 0.00 37 1009.0
20260504224653 69 204 2.0 3.0 0.00 0.00 0.00 38 1008.8
20260504224149 69 145 0.0 1.0 0.00 0.00 0.00 38 1008.9
20260504223647 69 180 1.0 3.0 0.00 0.00 0.00 37 1008.8
20260504223142 69 186 1.0 3.0 0.00 0.00 0.00 36 1008.8
20260504222639 69 198 5.0 10.0 0.00 0.00 0.00 35 1008.9
20260504222136 69 184 6.0 8.0 0.00 0.00 0.00 36 1008.8
20260504221633 70 186 0.0 0.0 0.00 0.00 0.00 37 1009.0
20260504221131 70 171 0.0 0.0 0.00 0.00 0.00 36 1008.9
20260504220627 70 237 0.0 1.0 0.00 0.00 0.00 35 1008.9
20260504220125 70 197 0.0 1.0 0.00 0.00 0.00 35 1009.0
20260504215620 70 199 0.0 1.0 0.00 0.00 0.00 35 1009.2
20260504215118 70 208 7.0 11.0 0.00 0.00 0.00 35 1009.0
20260504214614 70 206 0.0 1.0 0.00 0.00 0.00 36 1009.0
20260504214110 70 146 0.0 0.0 0.00 0.00 0.00 36 1009.2
20260504213607 70 203 3.0 8.0 0.00 0.00 0.00 35 1009.2
20260504213104 70 222 4.0 7.0 0.00 0.00 0.00 36 1009.1
20260504212600 71 296 5.0 8.0 0.00 0.00 0.00 33 1009.3
20260504212057 71 223 1.0 3.0 0.00 0.00 0.00 34 1009.2
20260504211554 71 272 5.0 8.0 0.00 0.00 0.00 34 1009.2
20260504211051 70 275 0.0 2.0 0.00 0.00 0.00 35 1009.3